sat.trackr.live / text

‹ back to catalog

STARLINK-6297

NORAD 57352 · 2023-099AA

PAYLOAD ACTIVE UNKNOWN

§ Identity

Operator
Country
US
Launch date
2023-07-16
Launch site
AFETR
Launch vehicle
Mass (kg)
RCS (m²)

Purposes: comms

External: N2YO · Heavens-Above · Gunter

§ Orbital elements

Epoch: 2026-09-20T21:40:10.737984Z

Period
94.27 min
Inclination
43.0010°
Eccentricity
0.0001016
Mean motion
15.27576295 rev/d
Perigee alt
482.4 km
Apogee alt
483.8 km
Semi-major
6,861.2 km
B*
1.0901e-5
RAAN
219.3054°
Arg perigee
255.2957°
Mean anomaly
104.7782°
Rev number
17,605

§ Raw data

STARLINK-62971 57352U 23099AA  26263.90290206  .00000038  00000+0  10901-4 0  99972 57352  43.0010 219.3054 0001016 255.2957 104.7782 15.27576295176056

JSON: /api/v1/satellites/57352 · /tle

For live sub-satellite position, see the globe view (requires WebGL).

§ Visibility from observer

Set your observer location to see the next 7 days of passes ≥ 10°. The values pass through the URL so the page stays shareable.

No JS? Fill the form by hand. The geolocation button needs JavaScript.